Showing default

IRIDIUM 165, 43572

Orbit data source: Space-Track

IRIDIUM 165, 43572 is a payload satellite owned by Iridium (US) in LEO that was launched on Wed, 25 Jul 2018 UTC via an FALCON 9 launch vehicle from the Air Force Western Test Range (AFWTR). Payload-class satellites include a variety of spacecraft equipped with specific instruments for various scientific and technological missions. These include communications satellites like Starlink; space stations such as the ISS; scientific satellites like the Hubble; Earth observation satellites from companies like Planet Labs, Umbra, and HawkEye 360; GPS; miniature CubeSats for education and research; and military/defense satellites.

Loading next visibility...
Identifier
43572, 2018-061D
Orbit
LEO
Country
Flag of USUS
Related business
Manufacturer
NGIS SSG Gilbert
Mission
Operational Commercial Communications
Bus & Motor
ELITEBUS, Unknown motor
Mass
860 kg wet, 700 kg dry
Launch date (UTC)
2018-07-25 (8 years ago)
Launch vehicle
FALCON 9
Launch site
Air Force Western Test Range (AFWTR)
Object type
Payload
Rocket body
Debris
Shape & HBR
Trap Box + 2 Pan, 4.8 m
Radar Cross Section
10.154 m², Large (>1 m²)

Expand to show TLE details & history
Last TLE update: 10 hours ago

TLE from 10 hours ago
0 IRIDIUM 165
1 43572U 18061D   26038.30993556  .00000330  00000-0  11074-3 0  9998
2 43572  86.3967 111.1295 0002090  95.6872 264.4562 14.34220390394777
Epoch: 2026-02-07T07:26Z
TLE epoch observation values (Epoch: 2026-02-07T07:26:18.432Z)
Latitude
-0.00003°
Longitude
-137.8826°
Altitude
780.854 km
Speed
7.463 km/s
True Right ascension
07h 24m 31s
True Declination
0° 00' 00"
Sunlit
Object was in full shadow at epoch
Visualization orbit readout
Latitude
Unknown
Longitude
Unknown
Altitude
Unknown
Speed
Unknown
Apparent Right ascension
Unknown
Apparent Declination
Unknown
Sunlit
N/A
Visualization observer readout
Local Sidereal Time
19:35:52
Azimuth
Unknown
Elevation
Unknown
Doppler factor
Unknown
Orbital elements
Apogee altitude
776.118 km
Perigee altitude
773.128 km
Semi-major axis
7,152.76 km
Eccentricity
0.00021
Inclination
86.3967°
RAAN
111.1295°
Arg. of periapsis
95.6872°
True anomaly
264.43236°
Mean anomaly
264.4562°
Eccentric anomaly
264.44428°
Mean motion
3.58784 °/min
Orbital period
100.34 mins
BSTAR
0.00011074
Loading maneuver chart data...
Computing Atmospheric mass density...
Loading historical data...
Loading historical data...
Loading historical data...
Loading historical data...
Loading historical data...
Loading historical data...
Loading historical data...

Documentation

Showing up to 5 results
|